Time,TemperatureF,DewpointF,PressureIn,WindDirection,WindDirectionDegrees,WindSpeedMPH,WindSpeedGustMPH,Humidity,HourlyPrecipIn,Conditions,Clouds,dailyrainin,SoftwareType,DateUTC
2013-07-16 00:02:00,77.6,70.9,30.07,SE,136,0.0,0.0,80,0.00,,CLR,0.00,VWS V14.01,2013-07-16 04:02:00,
2013-07-16 00:07:00,77.6,70.9,30.07,SE,136,0.0,0.0,80,0.00,,CLR,0.00,VWS V14.01,2013-07-16 04:07:00,
2013-07-16 00:13:00,77.6,70.9,30.07,SE,136,0.0,0.0,80,0.00,,CLR,0.00,VWS V14.01,2013-07-16 04:13:00,
2013-07-16 00:22:00,77.6,70.9,30.07,SE,136,0.0,0.0,80,0.00,,CLR,0.00,VWS V14.01,2013-07-16 04:22:00,
2013-07-16 00:27:00,77.6,70.9,30.07,SE,136,0.0,0.0,80,0.00,,CLR,0.00,VWS V14.01,2013-07-16 04:27:00,
2013-07-16 00:32:00,77.4,70.8,30.07,SE,136,0.0,0.0,80,0.00,,CLR,0.00,VWS V14.01,2013-07-16 04:32:00,
2013-07-16 00:37:00,76.8,70.2,30.07,SE,136,0.0,0.0,80,0.00,,CLR,0.00,VWS V14.01,2013-07-16 04:37:00,
2013-07-16 00:42:00,76.5,69.9,30.07,SE,136,0.0,0.0,80,0.00,,CLR,0.00,VWS V14.01,2013-07-16 04:42:00,
2013-07-16 00:47:00,76.3,70.4,30.07,SE,136,0.0,0.0,82,0.00,,CLR,0.00,VWS V14.01,2013-07-16 04:47:00,
2013-07-16 00:57:00,76.5,70.2,30.07,SE,136,0.0,0.0,81,0.00,,CLR,0.00,VWS V14.01,2013-07-16 04:57:00,
2013-07-16 01:02:00,76.7,70.4,30.07,SE,136,0.0,0.0,81,0.00,,CLR,0.00,VWS V14.01,2013-07-16 05:02:00,
2013-07-16 01:12:00,77.0,70.0,30.07,SE,136,0.0,0.0,79,0.00,,CLR,0.00,VWS V14.01,2013-07-16 05:12:00,
2013-07-16 01:17:00,77.0,69.6,30.08,SE,136,0.0,0.0,78,0.00,,CLR,0.00,VWS V14.01,2013-07-16 05:17:00,
2013-07-16 01:22:00,77.0,69.6,30.08,SE,136,0.0,0.0,78,0.00,,CLR,0.00,VWS V14.01,2013-07-16 05:22:00,
2013-07-16 01:27:00,77.2,69.4,30.08,SE,136,0.0,0.0,77,0.00,,CLR,0.00,VWS V14.01,2013-07-16 05:27:00,
2013-07-16 01:32:00,77.2,69.1,30.08,SE,136,0.0,0.0,76,0.00,,CLR,0.00,VWS V14.01,2013-07-16 05:32:00,
2013-07-16 01:37:00,77.0,68.9,30.08,SE,136,0.0,0.0,76,0.00,,CLR,0.00,VWS V14.01,2013-07-16 05:37:00,
2013-07-16 01:42:00,76.1,68.8,30.08,SE,136,0.0,0.0,78,0.00,,CLR,0.00,VWS V14.01,2013-07-16 05:42:00,
2013-07-16 01:47:00,75.3,68.3,30.08,SE,136,0.0,0.0,79,0.00,,CLR,0.00,VWS V14.01,2013-07-16 05:47:00,
2013-07-16 01:52:00,74.6,68.8,30.08,SE,136,0.0,0.0,82,0.00,,CLR,0.00,VWS V14.01,2013-07-16 05:52:00,
2013-07-16 01:57:00,74.2,68.4,30.08,SE,136,0.0,0.0,82,0.00,,CLR,0.00,VWS V14.01,2013-07-16 05:57:00,
2013-07-16 02:02:00,73.9,68.8,30.08,SE,136,0.0,0.0,84,0.00,,CLR,0.00,VWS V14.01,2013-07-16 06:02:00,
2013-07-16 02:12:00,73.5,69.1,30.08,SE,136,0.0,0.0,86,0.00,,CLR,0.00,VWS V14.01,2013-07-16 06:12:00,
2013-07-16 02:17:00,73.5,69.1,30.08,SE,136,0.0,0.0,86,0.00,,CLR,0.00,VWS V14.01,2013-07-16 06:17:00,
2013-07-16 02:22:00,73.5,69.4,30.08,SE,136,0.0,0.0,87,0.00,,CLR,0.00,VWS V14.01,2013-07-16 06:22:00,
2013-07-16 02:27:00,73.7,69.6,30.08,SE,136,0.0,0.0,87,0.00,,CLR,0.00,VWS V14.01,2013-07-16 06:27:00,
2013-07-16 02:32:00,73.9,69.8,30.08,SE,136,0.0,0.0,87,0.00,,CLR,0.00,VWS V14.01,2013-07-16 06:32:00,
2013-07-16 02:37:00,74.0,69.6,30.08,SE,136,0.0,0.0,86,0.00,,CLR,0.00,VWS V14.01,2013-07-16 06:37:00,
2013-07-16 02:42:00,74.2,69.8,30.08,SE,136,0.0,0.0,86,0.00,,CLR,0.00,VWS V14.01,2013-07-16 06:42:00,
2013-07-16 02:52:00,74.9,69.7,30.08,SE,136,0.0,0.0,84,0.00,,CLR,0.00,VWS V14.01,2013-07-16 06:52:00,
2013-07-16 02:57:00,74.9,69.4,30.08,SE,136,0.0,0.0,83,0.00,,CLR,0.00,VWS V14.01,2013-07-16 06:57:00,
2013-07-16 03:02:00,74.7,68.8,30.08,SE,136,0.0,0.0,82,0.00,,CLR,0.00,VWS V14.01,2013-07-16 07:02:00,
2013-07-16 03:07:00,74.4,68.6,30.08,SE,136,0.0,0.0,82,0.00,,CLR,0.00,VWS V14.01,2013-07-16 07:07:00,
2013-07-16 03:12:00,74.2,68.7,30.08,SE,136,0.0,0.0,83,0.00,,CLR,0.00,VWS V14.01,2013-07-16 07:12:00,
2013-07-16 03:22:00,74.0,68.5,30.09,SE,136,0.0,0.0,83,0.00,,CLR,0.00,VWS V14.01,2013-07-16 07:22:00,
2013-07-16 03:27:00,73.9,68.4,30.09,SE,136,0.0,0.0,83,0.00,,CLR,0.00,VWS V14.01,2013-07-16 07:27:00,
2013-07-16 03:37:00,73.5,68.4,30.08,SE,136,0.0,0.0,84,0.00,,CLR,0.00,VWS V14.01,2013-07-16 07:37:00,
2013-07-16 03:42:00,73.2,68.4,30.08,SE,136,0.0,0.0,85,0.00,,,0.00,VWS V14.01,2013-07-16 07:42:00,
2013-07-16 03:47:00,73.0,68.2,30.08,SE,136,0.0,0.0,85,0.00,,,0.00,VWS V14.01,2013-07-16 07:47:00,
2013-07-16 03:52:00,72.8,68.4,30.08,SE,136,0.0,0.0,86,0.00,,,0.00,VWS V14.01,2013-07-16 07:52:00,
2013-07-16 03:57:00,72.5,68.1,30.08,SE,136,0.0,0.0,86,0.00,,,0.00,VWS V14.01,2013-07-16 07:57:00,
2013-07-16 04:02:00,72.3,67.9,30.08,SE,136,0.0,0.0,86,0.00,,,0.00,VWS V14.01,2013-07-16 08:02:00,
2013-07-16 04:12:00,72.0,67.9,30.08,SE,136,0.0,0.0,87,0.00,,,0.00,VWS V14.01,2013-07-16 08:12:00,
2013-07-16 04:17:00,72.1,68.3,30.08,SE,136,0.0,0.0,88,0.00,,,0.00,VWS V14.01,2013-07-16 08:17:00,
2013-07-16 04:22:00,72.1,68.3,30.08,SE,136,0.0,0.0,88,0.00,,,0.00,VWS V14.01,2013-07-16 08:22:00,
2013-07-16 04:27:00,72.1,68.3,30.08,SE,136,0.0,0.0,88,0.00,,,0.00,VWS V14.01,2013-07-16 08:27:00,
2013-07-16 04:32:00,72.3,68.9,30.07,SE,136,0.0,0.0,89,0.00,,,0.00,VWS V14.01,2013-07-16 08:32:00,
2013-07-16 04:42:00,72.1,68.7,30.07,SE,136,0.0,0.0,89,0.00,,CLR,0.00,VWS V14.01,2013-07-16 08:42:00,
2013-07-16 04:47:00,72.0,68.6,30.07,SE,136,0.0,0.0,89,0.00,,CLR,0.00,VWS V14.01,2013-07-16 08:47:00,
2013-07-16 04:52:00,71.8,68.4,30.07,SE,136,0.0,0.0,89,0.00,,CLR,0.00,VWS V14.01,2013-07-16 08:52:00,
2013-07-16 05:02:00,72.0,68.6,30.07,SE,136,0.0,0.0,89,0.00,,CLR,0.00,VWS V14.01,2013-07-16 09:02:00,
2013-07-16 05:12:00,71.8,68.7,30.07,SE,136,0.0,0.0,90,0.00,,CLR,0.00,VWS V14.01,2013-07-16 09:12:00,
2013-07-16 05:17:00,71.8,68.7,30.08,SE,136,0.0,0.0,90,0.00,,CLR,0.00,VWS V14.01,2013-07-16 09:17:00,
2013-07-16 05:22:00,71.6,68.5,30.08,SE,136,0.0,0.0,90,0.00,,CLR,0.00,VWS V14.01,2013-07-16 09:22:00,
2013-07-16 05:27:00,71.6,68.5,30.08,SE,136,0.0,0.0,90,0.00,,CLR,0.00,VWS V14.01,2013-07-16 09:27:00,
2013-07-16 05:32:00,71.6,68.5,30.08,SE,136,0.0,0.0,90,0.00,,CLR,0.00,VWS V14.01,2013-07-16 09:32:00,
2013-07-16 05:37:00,71.5,68.4,30.08,SE,136,0.0,0.0,90,0.00,,CLR,0.00,VWS V14.01,2013-07-16 09:37:00,
2013-07-16 05:47:00,71.3,68.2,30.09,SE,136,0.0,0.0,90,0.00,,CLR,0.00,VWS V14.01,2013-07-16 09:47:00,
2013-07-16 05:52:00,71.1,68.0,30.09,SE,136,0.0,0.0,90,0.00,,CLR,0.00,VWS V14.01,2013-07-16 09:52:00,
2013-07-16 05:57:00,71.1,68.0,30.09,SE,136,0.0,0.0,90,0.00,,CLR,0.00,VWS V14.01,2013-07-16 09:57:00,
2013-07-16 06:02:00,71.1,68.0,30.09,SE,136,0.0,0.0,90,0.00,,CLR,0.00,VWS V14.01,2013-07-16 10:02:00,
2013-07-16 06:07:00,70.8,67.7,30.09,SE,136,0.0,0.0,90,0.00,,CLR,0.00,VWS V14.01,2013-07-16 10:07:00,
2013-07-16 06:12:00,70.8,67.7,30.09,SE,136,0.0,0.0,90,0.00,,CLR,0.00,VWS V14.01,2013-07-16 10:12:00,
2013-07-16 06:17:00,70.6,67.5,30.09,SE,136,0.0,0.0,90,0.00,,CLR,0.00,VWS V14.01,2013-07-16 10:17:00,
2013-07-16 06:22:00,70.6,67.5,30.09,SE,138,0.0,0.0,90,0.00,,CLR,0.00,VWS V14.01,2013-07-16 10:22:00,
2013-07-16 06:27:00,70.6,67.8,30.09,SE,138,0.0,0.0,91,0.00,,CLR,0.00,VWS V14.01,2013-07-16 10:27:00,
2013-07-16 06:32:00,70.6,67.8,30.10,SE,138,0.0,0.0,91,0.00,,CLR,0.00,VWS V14.01,2013-07-16 10:32:00,
2013-07-16 06:37:00,70.6,67.8,30.10,SE,138,0.0,0.0,91,0.00,,CLR,0.00,VWS V14.01,2013-07-16 10:37:00,
2013-07-16 06:42:00,70.6,67.8,30.10,SE,138,0.0,0.0,91,0.00,,CLR,0.00,VWS V14.01,2013-07-16 10:42:00,
2013-07-16 06:47:00,70.8,68.1,30.10,SE,138,0.0,0.0,91,0.00,,CLR,0.00,VWS V14.01,2013-07-16 10:47:00,
2013-07-16 06:52:00,70.9,68.2,30.10,SE,138,0.0,0.0,91,0.00,,CLR,0.00,VWS V14.01,2013-07-16 10:52:00,
2013-07-16 06:57:00,71.1,68.3,30.10,SE,138,0.0,0.0,91,0.00,,CLR,0.00,VWS V14.01,2013-07-16 10:57:00,
2013-07-16 07:07:00,71.3,68.5,30.10,SE,138,0.0,0.0,91,0.00,,CLR,0.00,VWS V14.01,2013-07-16 11:07:00,
2013-07-16 07:12:00,71.5,68.7,30.10,SE,138,0.0,0.0,91,0.00,,CLR,0.00,VWS V14.01,2013-07-16 11:12:00,
2013-07-16 07:22:00,72.1,69.7,30.11,SE,138,0.0,0.0,92,0.00,,CLR,0.00,VWS V14.01,2013-07-16 11:22:00,
2013-07-16 07:27:00,72.3,69.8,30.11,SE,138,0.0,0.0,92,0.00,,CLR,0.00,VWS V14.01,2013-07-16 11:27:00,
2013-07-16 07:32:00,72.8,70.3,30.11,SE,138,0.0,0.0,92,0.00,,CLR,0.00,VWS V14.01,2013-07-16 11:32:00,
2013-07-16 07:42:00,74.0,71.2,30.11,SE,138,0.0,0.0,91,0.00,,CLR,0.00,VWS V14.01,2013-07-16 11:42:00,
2013-07-16 07:47:00,74.9,71.8,30.11,SE,138,0.0,0.0,90,0.00,,CLR,0.00,VWS V14.01,2013-07-16 11:47:00,
2013-07-16 07:52:00,75.6,72.1,30.11,SE,138,0.0,0.0,89,0.00,,CLR,0.00,VWS V14.01,2013-07-16 11:52:00,
2013-07-16 07:57:00,76.3,72.2,30.11,SE,138,0.0,0.0,87,0.00,,CLR,0.00,VWS V14.01,2013-07-16 11:57:00,
2013-07-16 08:02:00,77.2,72.3,30.11,SE,138,0.0,0.0,85,0.00,,CLR,0.00,VWS V14.01,2013-07-16 12:02:00,
2013-07-16 08:07:00,77.9,72.0,30.11,SE,138,0.0,0.0,82,0.00,,CLR,0.00,VWS V14.01,2013-07-16 12:07:00,
2013-07-16 08:12:00,78.6,71.6,30.11,SE,138,0.0,0.0,79,0.00,,CLR,0.00,VWS V14.01,2013-07-16 12:12:00,
2013-07-16 08:17:00,78.8,71.0,30.12,SE,138,0.0,0.0,77,0.00,,CLR,0.00,VWS V14.01,2013-07-16 12:17:00,
2013-07-16 08:27:00,80.3,70.9,30.12,SE,138,0.0,0.0,73,0.00,,CLR,0.00,VWS V14.01,2013-07-16 12:27:00,
2013-07-16 08:32:00,80.9,69.8,30.12,SE,138,0.0,0.0,69,0.00,,CLR,0.00,VWS V14.01,2013-07-16 12:32:00,
2013-07-16 08:37:00,80.5,69.4,30.12,SE,138,0.0,0.0,69,0.00,,CLR,0.00,VWS V14.01,2013-07-16 12:37:00,
2013-07-16 08:42:00,80.5,69.8,30.12,SE,138,0.0,0.0,70,0.00,,CLR,0.00,VWS V14.01,2013-07-16 12:42:00,
2013-07-16 08:52:00,81.2,70.1,30.12,SE,138,0.0,0.0,69,0.00,,CLR,0.00,VWS V14.01,2013-07-16 12:52:00,
2013-07-16 08:57:00,81.1,70.0,30.12,SE,138,0.0,0.0,69,0.00,,CLR,0.00,VWS V14.01,2013-07-16 12:57:00,
2013-07-16 09:02:00,80.9,69.8,30.12,SSE,148,0.0,0.0,69,0.00,,CLR,0.00,VWS V14.01,2013-07-16 13:02:00,
2013-07-16 09:12:00,80.9,69.8,30.12,South,174,0.0,0.0,69,0.00,,CLR,0.00,VWS V14.01,2013-07-16 13:12:00,
2013-07-16 09:17:00,81.1,70.0,30.13,South,174,0.0,0.0,69,0.00,,CLR,0.00,VWS V14.01,2013-07-16 13:17:00,
2013-07-16 09:22:00,81.1,70.0,30.13,South,174,0.0,0.0,69,0.00,,CLR,0.00,VWS V14.01,2013-07-16 13:22:00,
2013-07-16 09:27:00,81.2,70.1,30.13,South,174,0.0,0.0,69,0.00,,CLR,0.00,VWS V14.01,2013-07-16 13:27:00,
2013-07-16 09:32:00,81.4,70.3,30.14,South,175,0.0,0.0,69,0.00,,CLR,0.00,VWS V14.01,2013-07-16 13:32:00,
2013-07-16 09:37:00,81.4,70.3,30.14,South,175,0.0,0.0,69,0.00,,CLR,0.00,VWS V14.01,2013-07-16 13:37:00,
2013-07-16 09:47:00,81.6,69.6,30.13,South,188,0.0,0.0,67,0.00,,CLR,0.00,VWS V14.01,2013-07-16 13:47:00,
2013-07-16 09:52:00,81.6,69.2,30.13,SSW,195,0.0,0.0,66,0.00,,CLR,0.00,VWS V14.01,2013-07-16 13:52:00,
2013-07-16 09:57:00,81.8,69.3,30.13,SSW,200,0.0,0.0,66,0.00,,CLR,0.00,VWS V14.01,2013-07-16 13:57:00,
2013-07-16 10:02:00,82.2,70.2,30.13,SSW,200,0.0,0.0,67,0.00,,CLR,0.00,VWS V14.01,2013-07-16 14:02:00,
2013-07-16 10:12:00,82.8,70.3,30.13,SSW,205,0.0,0.0,66,0.00,,CLR,0.00,VWS V14.01,2013-07-16 14:12:00,
2013-07-16 10:17:00,82.8,69.8,30.13,SSW,205,0.0,0.0,65,0.00,,CLR,0.00,VWS V14.01,2013-07-16 14:17:00,
2013-07-16 10:27:00,83.4,69.0,30.13,SSW,213,0.0,0.0,62,0.00,,CLR,0.00,VWS V14.01,2013-07-16 14:27:00,
2013-07-16 10:32:00,83.4,69.9,30.13,SSW,213,0.0,0.0,64,0.00,,CLR,0.00,VWS V14.01,2013-07-16 14:32:00,
2013-07-16 10:37:00,83.4,69.5,30.13,SSW,213,0.0,0.0,63,0.00,,CLR,0.00,VWS V14.01,2013-07-16 14:37:00,
2013-07-16 10:42:00,83.6,69.2,30.13,SSW,213,0.0,0.0,62,0.00,,CLR,0.00,VWS V14.01,2013-07-16 14:42:00,
2013-07-16 10:47:00,84.0,68.6,30.13,SSW,213,0.0,0.0,60,0.00,,CLR,0.00,VWS V14.01,2013-07-16 14:47:00,
2013-07-16 10:52:00,84.3,68.4,30.13,SW,216,0.0,0.0,59,0.00,,CLR,0.00,VWS V14.01,2013-07-16 14:52:00,
2013-07-16 11:02:00,84.1,68.7,30.13,WSW,246,0.0,0.0,60,0.00,,CLR,0.00,VWS V14.01,2013-07-16 15:02:00,
2013-07-16 11:12:00,83.8,68.4,30.13,West,261,0.0,0.0,60,0.00,,CLR,0.00,VWS V14.01,2013-07-16 15:12:00,
2013-07-16 11:22:00,83.4,69.0,30.12,West,264,0.0,0.0,62,0.00,,CLR,0.00,VWS V14.01,2013-07-16 15:22:00,
2013-07-16 11:32:00,84.3,68.9,30.12,West,264,0.0,0.0,60,0.00,,CLR,0.00,VWS V14.01,2013-07-16 15:32:00,
2013-07-16 11:37:00,84.7,69.8,30.12,West,264,0.0,0.0,61,0.00,,CLR,0.00,VWS V14.01,2013-07-16 15:37:00,
2013-07-16 11:42:00,85.3,69.8,30.12,West,265,0.0,0.0,60,0.00,,CLR,0.00,VWS V14.01,2013-07-16 15:42:00,
2013-07-16 11:47:00,85.3,68.3,30.12,SW,229,0.0,0.0,57,0.00,,CLR,0.00,VWS V14.01,2013-07-16 15:47:00,
2013-07-16 11:52:00,86.5,69.0,30.12,SW,227,0.0,0.0,56,0.00,,CLR,0.00,VWS V14.01,2013-07-16 15:52:00,
2013-07-16 11:57:00,87.2,69.1,30.12,SW,220,0.0,0.0,55,0.00,,CLR,0.00,VWS V14.01,2013-07-16 15:57:00,
2013-07-16 12:02:00,87.2,69.1,30.12,SSW,203,0.0,0.0,55,0.00,,CLR,0.00,VWS V14.01,2013-07-16 16:02:00,
2013-07-16 12:12:00,87.8,69.6,30.12,SSW,205,0.0,0.0,55,0.00,,CLR,0.00,VWS V14.01,2013-07-16 16:12:00,
2013-07-16 12:17:00,87.2,68.5,30.12,SSW,210,0.0,0.0,54,0.00,,CLR,0.00,VWS V14.01,2013-07-16 16:17:00,
2013-07-16 12:22:00,85.9,68.4,30.12,SSW,210,0.0,0.0,56,0.00,,CLR,0.00,VWS V14.01,2013-07-16 16:22:00,
2013-07-16 12:32:00,87.2,69.1,30.12,South,174,0.0,0.0,55,0.00,,CLR,0.00,VWS V14.01,2013-07-16 16:32:00,
2013-07-16 12:37:00,87.6,68.9,30.12,SSW,213,0.0,0.0,54,0.00,,CLR,0.00,VWS V14.01,2013-07-16 16:37:00,
2013-07-16 12:42:00,87.2,68.0,30.12,SW,229,0.0,0.0,53,0.00,,FEW034,0.00,VWS V14.01,2013-07-16 16:42:00,
2013-07-16 12:52:00,87.0,68.9,30.12,SW,226,0.0,0.0,55,0.00,,FEW034,0.00,VWS V14.01,2013-07-16 16:52:00,
2013-07-16 12:57:00,88.4,70.2,30.12,South,182,0.0,0.0,55,0.00,,FEW034,0.00,VWS V14.01,2013-07-16 16:57:00,
2013-07-16 13:02:00,89.3,71.0,30.11,South,181,0.0,0.0,55,0.00,,FEW034,0.00,VWS V14.01,2013-07-16 17:02:00,
2013-07-16 13:07:00,89.9,68.8,30.11,South,184,0.0,0.0,50,0.00,,FEW034,0.00,VWS V14.01,2013-07-16 17:07:00,
2013-07-16 13:17:00,86.7,68.1,30.11,SW,217,0.0,0.0,54,0.00,,FEW034,0.00,VWS V14.01,2013-07-16 17:17:00,
2013-07-16 13:22:00,87.4,68.7,30.11,SSW,196,0.0,0.0,54,0.00,,FEW034,0.00,VWS V14.01,2013-07-16 17:22:00,
2013-07-16 13:27:00,87.8,68.6,30.11,SSW,198,0.0,0.0,53,0.00,,FEW034,0.00,VWS V14.01,2013-07-16 17:27:00,
2013-07-16 13:32:00,88.6,67.6,30.11,South,182,0.0,0.0,50,0.00,,FEW034,0.00,VWS V14.01,2013-07-16 17:32:00,
2013-07-16 13:37:00,88.2,69.5,30.11,South,188,0.0,0.0,54,0.00,,FEW034,0.00,VWS V14.01,2013-07-16 17:37:00,
2013-07-16 13:42:00,88.4,67.4,30.11,SSW,195,0.0,0.0,50,0.00,,CLR,0.00,VWS V14.01,2013-07-16 17:42:00,
2013-07-16 13:47:00,88.6,67.0,30.11,SSW,202,0.0,0.0,49,0.00,,CLR,0.00,VWS V14.01,2013-07-16 17:47:00,
2013-07-16 13:52:00,88.6,67.6,30.11,SSW,202,0.0,0.0,50,0.00,,CLR,0.00,VWS V14.01,2013-07-16 17:52:00,
2013-07-16 13:57:00,89.7,68.6,30.11,SSW,202,0.0,0.0,50,0.00,,CLR,0.00,VWS V14.01,2013-07-16 17:57:00,
2013-07-16 14:07:00,88.0,66.5,30.11,SSW,210,0.0,0.0,49,0.00,,CLR,0.00,VWS V14.01,2013-07-16 18:07:00,
2013-07-16 14:17:00,89.5,67.8,30.10,SSW,196,0.0,0.0,49,0.00,,CLR,0.00,VWS V14.01,2013-07-16 18:17:00,
2013-07-16 14:22:00,88.2,67.2,30.10,SSW,206,0.0,0.0,50,0.00,,CLR,0.00,VWS V14.01,2013-07-16 18:22:00,
2013-07-16 14:27:00,87.8,66.9,30.10,SW,215,0.0,0.0,50,0.00,,CLR,0.00,VWS V14.01,2013-07-16 18:27:00,
2013-07-16 14:32:00,88.8,67.8,30.09,SSW,212,0.0,0.0,50,0.00,,CLR,0.00,VWS V14.01,2013-07-16 18:32:00,
2013-07-16 14:37:00,88.0,66.5,30.09,SW,216,0.0,0.0,49,0.00,,CLR,0.00,VWS V14.01,2013-07-16 18:37:00,
2013-07-16 14:47:00,88.8,67.8,30.10,SSW,203,0.0,0.0,50,0.00,,FEW039,0.00,VWS V14.01,2013-07-16 18:47:00,
2013-07-16 14:52:00,90.5,67.5,30.10,SSW,203,0.0,0.0,47,0.00,,FEW039,0.00,VWS V14.01,2013-07-16 18:52:00,
2013-07-16 14:57:00,91.4,68.3,30.10,SSW,203,0.0,0.0,47,0.00,,FEW039,0.00,VWS V14.01,2013-07-16 18:57:00,
2013-07-16 15:02:00,90.7,67.7,30.09,SSW,208,0.0,0.0,47,0.00,,FEW039,0.00,VWS V14.01,2013-07-16 19:02:00,
2013-07-16 15:07:00,91.2,66.9,30.09,WSW,250,0.0,0.0,45,0.00,,FEW039,0.00,VWS V14.01,2013-07-16 19:07:00,
2013-07-16 15:17:00,89.9,68.8,30.09,SSW,212,0.0,0.0,50,0.00,,FEW039,0.00,VWS V14.01,2013-07-16 19:17:00,
2013-07-16 15:22:00,90.1,66.6,30.09,SSW,209,0.0,0.0,46,0.00,,FEW039,0.00,VWS V14.01,2013-07-16 19:22:00,
2013-07-16 15:32:00,89.9,65.1,30.09,SW,219,0.0,0.0,44,0.00,,FEW039,0.00,VWS V14.01,2013-07-16 19:32:00,
2013-07-16 15:37:00,90.7,65.8,30.09,SW,219,0.0,0.0,44,0.00,,FEW039,0.00,VWS V14.01,2013-07-16 19:37:00,
2013-07-16 15:47:00,89.3,66.4,30.09,SSW,210,0.0,0.0,47,0.00,,SCT055,0.00,VWS V14.01,2013-07-16 19:47:00,
2013-07-16 15:52:00,90.5,67.5,30.09,SSW,212,0.0,0.0,47,0.00,,SCT055,0.00,VWS V14.01,2013-07-16 19:52:00,
2013-07-16 15:57:00,91.0,68.6,30.09,SSW,212,0.0,0.0,48,0.00,,SCT055,0.00,VWS V14.01,2013-07-16 19:57:00,
2013-07-16 16:07:00,89.7,67.4,30.08,SSW,209,0.0,0.0,48,0.00,,SCT055,0.00,VWS V14.01,2013-07-16 20:07:00,
2013-07-16 16:12:00,91.2,66.9,30.08,SSW,208,0.0,0.0,45,0.00,,SCT055,0.00,VWS V14.01,2013-07-16 20:12:00,
2013-07-16 16:22:00,90.7,65.8,30.08,SW,215,0.0,0.0,44,0.00,,SCT055,0.00,VWS V14.01,2013-07-16 20:22:00,
2013-07-16 16:27:00,91.2,66.3,30.08,SW,217,0.0,0.0,44,0.00,,SCT055,0.00,VWS V14.01,2013-07-16 20:27:00,
2013-07-16 16:32:00,91.2,66.3,30.08,SW,220,0.0,0.0,44,0.00,,SCT055,0.00,VWS V14.01,2013-07-16 20:32:00,
2013-07-16 16:37:00,90.7,65.8,30.08,SW,226,0.0,0.0,44,0.00,,SCT055,0.00,VWS V14.01,2013-07-16 20:37:00,
2013-07-16 16:42:00,90.5,65.6,30.08,SW,227,0.0,0.0,44,0.00,,CLR,0.00,VWS V14.01,2013-07-16 20:42:00,
2013-07-16 16:52:00,90.7,67.1,30.08,SW,229,0.0,0.0,46,0.00,,CLR,0.00,VWS V14.01,2013-07-16 20:52:00,
2013-07-16 16:57:00,90.7,66.5,30.08,SW,219,0.0,0.0,45,0.00,,CLR,0.00,VWS V14.01,2013-07-16 20:57:00,
2013-07-16 17:02:00,90.1,65.9,30.08,SW,219,0.0,0.0,45,0.00,,CLR,0.00,VWS V14.01,2013-07-16 21:02:00,
2013-07-16 17:07:00,90.7,66.5,30.08,SW,215,0.0,0.0,45,0.00,,CLR,0.00,VWS V14.01,2013-07-16 21:07:00,
2013-07-16 17:17:00,91.6,67.3,30.08,SW,216,0.0,0.0,45,0.00,,CLR,0.00,VWS V14.01,2013-07-16 21:17:00,
2013-07-16 17:22:00,90.5,66.9,30.08,SSW,213,0.0,0.0,46,0.00,,CLR,0.00,VWS V14.01,2013-07-16 21:22:00,
2013-07-16 17:27:00,91.0,66.1,30.08,SSW,213,0.0,0.0,44,0.00,,CLR,0.00,VWS V14.01,2013-07-16 21:27:00,
2013-07-16 17:32:00,91.0,65.4,30.08,South,185,0.0,0.0,43,0.00,,CLR,0.00,VWS V14.01,2013-07-16 21:32:00,
2013-07-16 17:42:00,91.2,67.6,30.08,South,186,0.0,0.0,46,0.00,,FEW043,0.00,VWS V14.01,2013-07-16 21:42:00,
2013-07-16 17:47:00,91.0,66.1,30.08,SSW,205,0.0,0.0,44,0.00,,FEW043,0.00,VWS V14.01,2013-07-16 21:47:00,
2013-07-16 17:52:00,90.3,64.8,30.08,SSW,205,0.0,0.0,43,0.00,,FEW043,0.00,VWS V14.01,2013-07-16 21:52:00,
2013-07-16 17:57:00,90.3,66.7,30.08,SSW,205,0.0,0.0,46,0.00,,FEW043,0.00,VWS V14.01,2013-07-16 21:57:00,
2013-07-16 18:02:00,91.2,66.3,30.08,SSW,205,0.0,0.0,44,0.00,,FEW043,0.00,VWS V14.01,2013-07-16 22:02:00,
2013-07-16 18:07:00,91.6,66.0,30.08,SSW,205,0.0,0.0,43,0.00,,FEW043,0.00,VWS V14.01,2013-07-16 22:07:00,
2013-07-16 18:12:00,90.7,66.5,30.08,SSW,205,0.0,0.0,45,0.00,,FEW043,0.00,VWS V14.01,2013-07-16 22:12:00,
2013-07-16 18:17:00,90.3,67.3,30.08,SSW,205,0.0,0.0,47,0.00,,FEW043,0.00,VWS V14.01,2013-07-16 22:17:00,
2013-07-16 18:27:00,91.4,67.7,30.08,SSW,205,0.0,0.0,46,0.00,,FEW043,0.00,VWS V14.01,2013-07-16 22:27:00,
2013-07-16 18:37:00,91.4,66.4,30.08,SSW,205,0.0,0.0,44,0.00,,FEW043,0.00,VWS V14.01,2013-07-16 22:37:00,
2013-07-16 18:47:00,90.5,66.3,30.08,SSW,205,0.0,0.0,45,0.00,,CLR,0.00,VWS V14.01,2013-07-16 22:47:00,
2013-07-16 18:52:00,91.0,66.1,30.08,SSW,205,0.0,0.0,44,0.00,,CLR,0.00,VWS V14.01,2013-07-16 22:52:00,
2013-07-16 19:02:00,91.0,67.4,30.07,SSW,205,0.0,0.0,46,0.00,,CLR,0.00,VWS V14.01,2013-07-16 23:02:00,
2013-07-16 19:07:00,91.0,67.4,30.07,SSW,205,0.0,0.0,46,0.00,,CLR,0.00,VWS V14.01,2013-07-16 23:07:00,
2013-07-16 19:12:00,90.5,66.3,30.07,SSW,205,0.0,0.0,45,0.00,,CLR,0.00,VWS V14.01,2013-07-16 23:12:00,
2013-07-16 19:17:00,89.5,66.0,30.07,SSW,205,0.0,0.0,46,0.00,,CLR,0.00,VWS V14.01,2013-07-16 23:17:00,
2013-07-16 19:22:00,89.5,65.4,30.07,SSW,205,0.0,0.0,45,0.00,,CLR,0.00,VWS V14.01,2013-07-16 23:22:00,
2013-07-16 19:27:00,89.0,66.2,30.07,SSW,205,0.0,0.0,47,0.00,,CLR,0.00,VWS V14.01,2013-07-16 23:27:00,
2013-07-16 19:37:00,89.0,66.2,30.06,SSW,205,0.0,0.0,47,0.00,,CLR,0.00,VWS V14.01,2013-07-16 23:37:00,
2013-07-16 19:42:00,88.8,65.4,30.06,SSW,205,0.0,0.0,46,0.00,,CLR,0.00,VWS V14.01,2013-07-16 23:42:00,
2013-07-16 19:52:00,89.9,66.4,30.06,SSW,205,0.0,0.0,46,0.00,,CLR,0.00,VWS V14.01,2013-07-16 23:52:00,
2013-07-16 19:57:00,90.3,66.1,30.06,SSW,205,0.0,0.0,45,0.00,,CLR,0.00,VWS V14.01,2013-07-16 23:57:00,
2013-07-16 20:02:00,91.2,66.9,30.06,SSW,205,0.0,0.0,45,0.00,,CLR,0.00,VWS V14.01,2013-07-17 00:02:00,
2013-07-16 20:12:00,89.7,66.2,30.06,SSW,205,0.0,0.0,46,0.00,,CLR,0.00,VWS V14.01,2013-07-17 00:12:00,
2013-07-16 20:22:00,90.7,65.8,30.06,SSW,205,0.0,0.0,44,0.00,,CLR,0.00,VWS V14.01,2013-07-17 00:22:00,
2013-07-16 20:27:00,90.5,66.3,30.06,SSW,205,0.0,0.0,45,0.00,,CLR,0.00,VWS V14.01,2013-07-17 00:27:00,
2013-07-16 20:32:00,90.3,67.3,30.06,SSW,205,0.0,0.0,47,0.00,,CLR,0.00,VWS V14.01,2013-07-17 00:32:00,
2013-07-16 20:42:00,89.9,68.2,30.06,SSW,205,0.0,0.0,49,0.00,,CLR,0.00,VWS V14.01,2013-07-17 00:42:00,
2013-07-16 20:47:00,89.0,68.0,30.06,SSW,205,0.0,0.0,50,0.00,,CLR,0.00,VWS V14.01,2013-07-17 00:47:00,
2013-07-16 20:52:00,88.0,68.2,30.06,SSW,205,0.0,0.0,52,0.00,,CLR,0.00,VWS V14.01,2013-07-17 00:52:00,
2013-07-16 21:02:00,87.0,68.9,30.07,SSW,205,0.0,0.0,55,0.00,,CLR,0.00,VWS V14.01,2013-07-17 01:02:00,
2013-07-16 21:07:00,87.0,69.4,30.07,SSW,205,0.0,0.0,56,0.00,,CLR,0.00,VWS V14.01,2013-07-17 01:07:00,
2013-07-16 21:12:00,86.7,69.1,30.07,SSW,205,0.0,0.0,56,0.00,,CLR,0.00,VWS V14.01,2013-07-17 01:12:00,
2013-07-16 21:17:00,85.7,68.7,30.07,SSW,205,0.0,0.0,57,0.00,,CLR,0.00,VWS V14.01,2013-07-17 01:17:00,
2013-07-16 21:22:00,85.1,69.7,30.07,SSW,205,0.0,0.0,60,0.00,,CLR,0.00,VWS V14.01,2013-07-17 01:22:00,
2013-07-16 21:27:00,84.7,69.3,30.07,SSW,205,0.0,0.0,60,0.00,,CLR,0.00,VWS V14.01,2013-07-17 01:27:00,
2013-07-16 21:32:00,84.3,69.4,30.07,SSW,205,0.0,0.0,61,0.00,,CLR,0.00,VWS V14.01,2013-07-17 01:32:00,
2013-07-16 21:37:00,83.8,68.9,30.07,SSW,205,0.0,0.0,61,0.00,,CLR,0.00,VWS V14.01,2013-07-17 01:37:00,
2013-07-16 21:42:00,83.2,68.8,30.07,SSW,205,0.0,0.0,62,0.00,,CLR,0.00,VWS V14.01,2013-07-17 01:42:00,
2013-07-16 21:52:00,83.2,68.8,30.07,SSW,205,0.0,0.0,62,0.00,,CLR,0.00,VWS V14.01,2013-07-17 01:52:00,
2013-07-16 21:57:00,82.8,68.5,30.07,SSW,205,0.0,0.0,62,0.00,,CLR,0.00,VWS V14.01,2013-07-17 01:57:00,
2013-07-16 22:02:00,82.6,68.3,30.08,SSW,205,0.0,0.0,62,0.00,,CLR,0.00,VWS V14.01,2013-07-17 02:02:00,
2013-07-16 22:12:00,82.4,68.6,30.08,SSW,205,0.0,0.0,63,0.00,,CLR,0.00,VWS V14.01,2013-07-17 02:12:00,
2013-07-16 22:17:00,82.0,68.6,30.08,SSW,205,0.0,0.0,64,0.00,,CLR,0.00,VWS V14.01,2013-07-17 02:17:00,
2013-07-16 22:22:00,81.8,68.4,30.08,SSW,205,0.0,0.0,64,0.00,,CLR,0.00,VWS V14.01,2013-07-17 02:22:00,
2013-07-16 22:27:00,81.6,68.7,30.08,SSW,205,0.0,0.0,65,0.00,,CLR,0.00,VWS V14.01,2013-07-17 02:27:00,
2013-07-16 22:32:00,81.6,69.2,30.09,SSW,205,0.0,0.0,66,0.00,,CLR,0.00,VWS V14.01,2013-07-17 02:32:00,
2013-07-16 22:37:00,81.2,69.2,30.09,SSW,205,0.0,0.0,67,0.00,,CLR,0.00,VWS V14.01,2013-07-17 02:37:00,
2013-07-16 22:47:00,80.3,69.2,30.09,SSW,205,0.0,0.0,69,0.00,,CLR,0.00,VWS V14.01,2013-07-17 02:47:00,
2013-07-16 22:52:00,80.5,69.4,30.09,SSW,205,0.0,0.0,69,0.00,,CLR,0.00,VWS V14.01,2013-07-17 02:52:00,
2013-07-16 22:57:00,80.5,69.4,30.09,SSW,205,0.0,0.0,69,0.00,,CLR,0.00,VWS V14.01,2013-07-17 02:57:00,
2013-07-16 23:02:00,80.5,69.4,30.08,SSW,205,0.0,0.0,69,0.00,,CLR,0.00,VWS V14.01,2013-07-17 03:02:00,
2013-07-16 23:07:00,80.3,69.2,30.08,SSW,205,0.0,0.0,69,0.00,,CLR,0.00,VWS V14.01,2013-07-17 03:07:00,
2013-07-16 23:17:00,79.9,69.2,30.08,SSW,205,0.0,0.0,70,0.00,,CLR,0.00,VWS V14.01,2013-07-17 03:17:00,
2013-07-16 23:22:00,79.8,69.2,30.08,SSW,205,0.0,0.0,70,0.00,,CLR,0.00,VWS V14.01,2013-07-17 03:22:00,
2013-07-16 23:27:00,80.3,69.2,30.08,SSW,205,0.0,0.0,69,0.00,,CLR,0.00,VWS V14.01,2013-07-17 03:27:00,
2013-07-16 23:32:00,80.3,69.2,30.08,SSW,205,0.0,0.0,69,0.00,,CLR,0.00,VWS V14.01,2013-07-17 03:32:00,
2013-07-16 23:42:00,79.8,69.2,30.08,SSW,205,0.0,0.0,70,0.00,,CLR,0.00,VWS V14.01,2013-07-17 03:42:00,
2013-07-16 23:47:00,79.6,69.0,30.08,SSW,205,0.0,0.0,70,0.00,,CLR,0.00,VWS V14.01,2013-07-17 03:47:00,
2013-07-16 23:52:00,79.2,69.0,30.08,SSW,205,0.0,0.0,71,0.00,,CLR,0.00,VWS V14.01,2013-07-17 03:52:00,
2013-07-16 23:57:00,79.0,69.2,30.08,SSW,205,0.0,0.0,72,0.00,,CLR,0.00,VWS V14.01,2013-07-17 03:57:00,